Regional Weather Roundup
Issued by NWS

Home | Current Version | Previous Version | Graphics & Text | Print | Product List | Glossary On
Versions: 1 2 3 4 5 6 7 8 9 10 11 12 13 14 15 16 17 18 19 20 21 22 23 24 25 26 27 28 29 30 31 32 33 34 35 36 37 38 39 40 41 42 43 44 45 46 47 48 49 50
523
ASUS43 KLSX 250557
RWRMO

WEATHER SUMMARY FOR MISSOURI
NATIONAL WEATHER SERVICE SPRINGFIELD MO
100 AM CDT MON SEP 25 2017

NOTE: "FAIR" INDICATES FEW OR NO CLOUDS BELOW 12,000 FEET WITH NO
       SIGNIFICANT WEATHER AND/OR OBSTRUCTIONS TO VISIBILITY.
       CURRENT SKY AND/OR WEATHER CONDITIONS ARE NOT AVAILABLE FOR
       CHILLICOTHE AND FARMINGTON.

MOZ001>031-035>038-043-044-053-054-250700-
...NORTHERN AND WESTERN MISSOURI...

CITY           SKY/WX    TMP DP  RH WIND       PRES   REMARKS
KANSAS CTY INT CLEAR     73  65  75 S8        29.92F
6HR MIN TEMP:  71; 6HR MAX TEMP:  79;

LEE`S SUMMIT   CLEAR     73  66  78 S8        29.94F
6HR MIN TEMP:  73; 6HR MAX TEMP:  83;

ST JOSEPH      PTCLDY    74  68  81 S5        29.92S
6HR MIN TEMP:  70; 6HR MAX TEMP:  82;

CHILLICOTHE      N/A     68  66  93 CALM      29.95S
6HR MIN TEMP:  67; 6HR MAX TEMP:  81;


$$
MOZ066>068-077>081-088>096-101>105-250700-
...SOUTHWEST MISSOURI...

CITY           SKY/WX    TMP DP  RH WIND       PRES   REMARKS
SPRINGFIELD    CLEAR     69  65  86 SE9       29.97F
6HR MIN TEMP:  69; 6HR MAX TEMP:  75;

JOPLIN         CLEAR     70  66  87 SE6       29.96S
6HR MIN TEMP:  70; 6HR MAX TEMP:  83;


$$
MOZ032>034-039>042-045>050-055>058-069>072-250700-
...CENTRAL MISSOURI...

CITY           SKY/WX    TMP DP  RH WIND       PRES   REMARKS
COLUMBIA       NOT AVBL
JEFFERSON CITY CLEAR     71  65  81 SE6       29.96S
6HR MIN TEMP:  70; 6HR MAX TEMP:  82;

ROLLA          CLEAR     69  63  81 S8        30.00S
6HR MIN TEMP:  67; 6HR MAX TEMP:  78;

SEDALIA        CLEAR     72  65  78 S7        29.96F
6HR MIN TEMP:  70; 6HR MAX TEMP:  83;

WARRENSBURG    CLEAR     68  63  83 S3        29.94S

$$
MOZ051-052-059>065-250700-
...EAST CENTRAL MISSOURI...

CITY           SKY/WX    TMP DP  RH WIND       PRES   REMARKS
ST LOUIS INTL  NOT AVBL

$$
MOZ072>076-082>087-097>100-106>115-250700-
...SOUTH CENTRAL AND SOUTHEAST MISSOURI...

CITY           SKY/WX    TMP DP  RH WIND       PRES   REMARKS
CAPE GIRARDEAU CLEAR     64  62  93 CALM      29.98S
6HR MIN TEMP:  63; 6HR MAX TEMP:  76;

POPLAR BLUFF   CLEAR     66  66 100 CALM      29.97F
6HR MIN TEMP:  66; 6HR MAX TEMP:  75;

WEST PLAINS    CLEAR     64  62  93 NE3       30.01F
6HR MIN TEMP:  64; 6HR MAX TEMP:  73; 6HR PCP:  0.01;


$$



USA.gov is the U.S. government's official web portal to all federal, state and local government web resources and services.